Flag for Norway

Past Weather in Kongsvinger, Norway — Yesterday and Last 2 Weeks

Now
57 °F

Scattered clouds.


Feels Like: 56 °F
Forecast: 58 / 50 °F
Wind: 7 mph from Northeast

Location: Oslo Gardermoen Airport
Current Time: Sep 28, 2020 at 4:57:08 pm
Latest Report: Sep 28, 2020 at 4:20 pm
Visibility: N/A
Pressure29.95 "Hg
Humidity: 77%
Dew Point: 50 °F
Location of KongsvingerLocation

Past Weather in Kongsvinger — Graph

°F

Kongsvinger Temperature Yesterday

Maximum temperature yesterday: 52 °F (at 1:50 pm)
Minimum temperature yesterday: 46 °F (at 12:50 am)
Average temperature yesterday: 50 °F

High & Low Weather Summary for the Past Weeks

 TemperatureHumidityPressure
High72 °F (Sep 18, 3:20 pm)100% (Sep 14, 4:20 am)30.45 "Hg (Sep 14, 4:20 am)
Low37 °F (Sep 18, 4:20 am)34% (Sep 17, 3:50 pm)29.21 "Hg (Sep 24, 11:50 am)
Average53 °F79%29.91 "Hg
* Reported Sep 13 2:20 pm — Sep 28 2:50 pm, Kongsvinger. Weather by CustomWeather, © 2020

Note: Actual official high and low records may vary slightly from our data, if they occured in-between our weather recording intervals... More about our weather records

Kongsvinger Weather History for the Previous 24 Hours

Scroll right to see more
 ConditionsComfort  
Time TempWeatherWind HumidityBarometerVisibility
2:50 pm
Mon, Sep 28
55 °FBroken clouds.7 mph77%29.98 "HgN/A
2:20 pm55 °FPartly sunny.6 mph77%30.01 "HgN/A
1:50 pm54 °FPartly sunny.5 mph82%30.01 "HgN/A
1:20 pm54 °FPartly sunny.7 mph82%30.01 "HgN/A
12:50 pm54 °FPartly sunny.7 mph82%30.01 "HgN/A
12:20 pm54 °FPartly sunny.10 mph82%30.01 "HgN/A
11:50 am54 °FBroken clouds.8 mph82%30.01 "HgN/A
11:20 am54 °FBroken clouds.8 mph82%30.01 "HgN/A
10:50 am52 °FBroken clouds.8 mph88%30.01 "HgN/A
10:20 am52 °FPartly sunny.8 mph88%30.01 "HgN/A
9:50 am52 °FPartly sunny.10 mph88%30.01 "HgN/A
9:20 am52 °FLow clouds.14 mph88%30.01 "HgN/A
8:50 am50 °FLow clouds.9 mph94%30.01 "HgN/A
8:20 am50 °FLow clouds.10 mph94%30.01 "HgN/A
7:50 am50 °FLow clouds.12 mph88%30.01 "HgN/A
7:20 am50 °FLow clouds.8 mph94%30.01 "HgN/A
6:50 am50 °FLow clouds.8 mph94%30.01 "HgN/A
6:20 am50 °FLow clouds.10 mph94%30.01 "HgN/A
5:20 am50 °FOvercast.8 mph94%30.01 "HgN/A
4:50 am50 °FMostly cloudy.8 mph94%30.01 "HgN/A
4:20 am50 °FOvercast.7 mph94%30.04 "HgN/A
3:50 am50 °FOvercast.8 mph94%30.04 "HgN/A
2:50 am50 °FOvercast.8 mph94%30.04 "HgN/A
2:20 am50 °FOvercast.9 mph94%30.04 "HgN/A
1:50 am50 °FLow clouds.9 mph94%30.04 "HgN/A
1:20 am52 °FOvercast.9 mph88%30.04 "HgN/A
12:50 am52 °FLow clouds.9 mph88%30.04 "HgN/A
12:20 am52 °FLow clouds.9 mph88%30.04 "HgN/A
11:50 pm
Sun, Sep 27
52 °FLow clouds.8 mph88%30.04 "HgN/A
11:20 pm52 °FLow clouds.8 mph94%30.04 "HgN/A
10:50 pm52 °FLow clouds.10 mph88%30.04 "HgN/A
10:20 pm52 °FLow clouds.8 mph88%30.04 "HgN/A
9:50 pm52 °FLow clouds.9 mph88%30.04 "HgN/A
9:20 pm52 °FLow clouds.9 mph88%30.04 "HgN/A
8:50 pm52 °FLow clouds.8 mph94%30.04 "HgN/A
7:50 pm52 °FOvercast.8 mph88%30.04 "HgN/A
7:20 pm52 °FPassing clouds.8 mph88%30.01 "HgN/A
6:50 pm52 °FOvercast.8 mph88%30.01 "HgN/A
6:20 pm52 °FMostly cloudy.10 mph88%30.01 "HgN/A
5:50 pm52 °FOvercast.10 mph88%30.01 "HgN/A
5:20 pm52 °FOvercast.8 mph88%30.01 "HgN/A
4:50 pm52 °FOvercast.10 mph88%30.01 "HgN/A
4:20 pm52 °FOvercast.10 mph88%30.01 "HgN/A
Weather by CustomWeather, © 2020

See weather overview